Date String (YYYY-MM-DD hh:mm:ss) UTC,Instrument flags,Ambient pressure (hPa),Sample flow (lpm),Bypass flow (lpm),Sample temperature (°C),Ambient temperature (°C),ASC tube jacket temperature (°C),LED temperature (°C),Box temperature (°C),Sample RH (%),Span deviation,Mass concentration (μg/m³),Mass concentration (μg/m³),Mass concentration (μg/m³)
DateTimeUTC,F1_M11,P_M11,Q1_M11,Q2_M11,T1_M11,T2_M11,T3_M11,T4_M11,T5_M11,U1_M11,ZSPAN_M11,X0_M11,X2_M11,X1_M11
2023-02-01 19:00:00,,0825.7,5.02,0.00,24.7,23.6,00.0,33.4,26.5,07.9,0000.0,0014.81,0005.75,0004.70
2023-02-01 19:01:00,,0825.7,4.98,0.00,24.7,23.6,00.0,33.4,26.5,07.5,0000.0,0014.08,0005.61,0004.64
2023-02-01 19:02:00,,0825.7,5.04,0.00,24.7,23.6,00.0,33.4,26.5,07.6,0000.0,0013.02,0005.44,0004.55
2023-02-01 19:03:00,,0825.6,4.98,0.00,24.7,23.6,00.0,33.4,26.5,07.6,0000.0,0012.25,0005.33,0004.45
2023-02-01 19:04:00,,0825.6,4.98,0.00,24.7,23.6,00.0,33.4,26.6,07.5,0000.0,0011.05,0005.22,0004.36
2023-02-01 19:05:00,,0825.6,4.97,0.00,24.7,23.6,00.0,33.5,26.6,07.5,0000.0,0010.69,0005.09,0004.25
2023-02-01 19:06:00,,0825.6,5.04,0.00,24.8,23.6,00.0,33.5,26.6,07.6,0000.0,0010.41,0004.96,0004.12
2023-02-01 19:07:00,,0825.6,4.99,0.00,24.8,23.6,00.0,33.5,26.6,07.9,0000.0,0010.14,0004.83,0004.04
2023-02-01 19:08:00,,0825.5,4.97,0.00,24.8,23.7,00.0,33.5,26.6,07.9,0000.0,0010.07,0004.80,0004.03
2023-02-01 19:09:00,,0825.5,5.03,0.00,24.8,23.7,00.0,33.5,26.6,07.8,0000.0,0009.86,0004.73,0004.00
2023-02-01 19:10:00,,0825.5,4.98,0.00,24.8,23.7,00.0,33.5,26.6,07.7,0000.0,0009.38,0004.65,0003.94
2023-02-01 19:11:00,,0825.5,4.97,0.00,24.8,23.7,00.0,33.5,26.6,08.0,0000.0,0008.85,0004.56,0003.88
2023-02-01 19:12:00,,0825.5,4.97,0.00,24.8,23.7,00.0,33.6,26.6,08.0,0000.0,0008.86,0004.56,0003.87
2023-02-01 19:13:00,,0825.5,5.01,0.00,24.8,23.7,00.0,33.6,26.6,07.5,0000.0,0008.98,0004.53,0003.86
2023-02-01 19:14:00,,0825.5,4.96,0.00,24.9,23.7,00.0,33.6,26.7,07.3,0000.0,0009.07,0004.48,0003.81
2023-02-01 19:15:00,,0825.4,5.00,0.00,24.9,23.7,00.0,33.6,26.7,07.2,0000.0,0009.38,0004.39,0003.76
2023-02-01 19:16:00,,0825.4,5.00,0.00,24.9,23.8,00.0,33.6,26.7,07.3,0000.0,0009.28,0004.26,0003.69
2023-02-01 19:17:00,,0825.4,4.98,0.00,24.9,23.8,00.0,33.6,26.8,07.1,0000.0,0009.37,0004.15,0003.61
2023-02-01 19:18:00,,0825.4,5.02,0.00,24.9,23.8,00.0,33.6,26.8,07.1,0000.0,0009.51,0004.07,0003.53
2023-02-01 19:19:00,,0825.4,5.01,0.00,24.9,23.8,00.0,33.7,26.8,07.2,0000.0,0009.21,0003.97,0003.44
2023-02-01 19:20:00,,0825.3,5.03,0.00,24.9,23.8,00.0,33.7,26.8,07.1,0000.0,0009.24,0003.91,0003.37
2023-02-01 19:21:00,,0825.4,5.00,0.00,25.0,23.9,00.0,33.7,26.8,07.2,0000.0,0009.13,0003.89,0003.31
2023-02-01 19:22:00,,0825.3,5.00,0.00,25.0,23.9,00.0,33.7,26.8,07.8,0000.0,0008.87,0003.83,0003.25
2023-02-01 19:23:00,,0825.4,5.00,0.00,25.0,23.9,00.0,33.7,26.8,07.6,0000.0,0008.72,0003.73,0003.16
2023-02-01 19:24:00,,0825.3,4.99,0.00,25.0,23.9,00.0,33.7,26.8,07.6,0000.0,0008.50,0003.68,0003.07
2023-02-01 19:25:00,,0825.3,4.97,0.00,25.0,23.9,00.0,33.7,26.9,07.4,0000.0,0008.75,0003.63,0003.00
2023-02-01 19:26:00,,0825.3,5.02,0.00,25.0,23.9,00.0,33.8,26.9,07.8,0000.0,0008.27,0003.58,0002.96
2023-02-01 19:27:00,,0825.2,5.03,0.00,25.1,24.0,00.0,33.8,26.9,08.0,0000.0,0007.95,0003.58,0002.98
2023-02-01 19:28:00,,0825.2,4.98,0.00,25.1,24.0,00.0,33.8,26.9,07.8,0000.0,0007.60,0003.55,0003.00
2023-02-01 19:29:00,,0825.2,5.01,0.00,25.1,24.0,00.0,33.8,26.9,08.3,0000.0,0006.88,0003.52,0003.02
2023-02-01 19:30:00,,0825.2,4.97,0.00,25.1,24.0,00.0,33.8,26.9,07.9,0000.0,0006.76,0003.50,0003.01
2023-02-01 19:31:00,,0825.2,5.02,0.00,25.1,24.0,00.0,33.8,27.0,08.4,0000.0,0007.55,0003.46,0003.00
2023-02-01 19:32:00,,0825.1,4.97,0.00,25.1,24.0,00.0,33.9,27.0,08.1,0000.0,0007.91,0003.40,0002.99
2023-02-01 19:33:00,,0825.1,4.99,0.00,25.1,24.1,00.0,33.9,27.0,07.7,0000.0,0007.91,0003.36,0002.94
2023-02-01 19:34:00,,0825.1,5.00,0.00,25.2,24.1,00.0,33.9,27.0,07.6,0000.0,0007.83,0003.31,0002.88
2023-02-01 19:35:00,,0825.1,4.98,0.00,25.2,24.1,00.0,33.9,27.0,07.9,0000.0,0007.75,0003.28,0002.89
2023-02-01 19:36:00,,0825.0,5.01,0.00,25.2,24.1,00.0,33.9,27.0,08.1,0000.0,0007.53,0003.28,0002.93
2023-02-01 19:37:00,,0825.1,4.99,0.00,25.2,24.1,00.0,33.9,27.1,08.3,0000.0,0007.57,0003.32,0003.00
2023-02-01 19:38:00,,0825.1,4.98,0.00,25.2,24.2,00.0,33.9,27.1,07.7,0000.0,0007.61,0003.31,0002.96
2023-02-01 19:39:00,,0825.1,4.98,0.00,25.3,24.2,00.0,34.0,27.1,07.9,0000.0,0007.65,0003.32,0002.95
2023-02-01 19:40:00,,0825.1,4.99,0.00,25.3,24.2,00.0,34.0,27.1,07.9,0000.0,0007.69,0003.34,0002.96
2023-02-01 19:41:00,,0825.1,5.01,0.00,25.3,24.2,00.0,34.0,27.2,07.9,0000.0,0007.70,0003.34,0002.96
2023-02-01 19:42:00,,0825.1,4.97,0.00,25.3,24.2,00.0,34.0,27.2,08.4,0000.0,0006.97,0003.37,0002.98
2023-02-01 19:43:00,,0825.1,5.01,0.00,25.3,24.3,00.0,34.0,27.2,07.9,0000.0,0006.18,0003.45,0003.10
2023-02-01 19:44:00,,0825.1,4.98,0.00,25.3,24.3,00.0,34.1,27.2,07.7,0000.0,0006.44,0003.61,0003.27
2023-02-01 19:45:00,,0825.0,4.98,0.00,25.4,24.3,00.0,34.1,27.2,08.0,0000.0,0006.85,0003.80,0003.43
2023-02-01 19:46:00,,0825.0,5.02,0.00,25.4,24.3,00.0,34.1,27.2,07.6,0000.0,0007.14,0003.90,0003.53
2023-02-01 19:47:00,,0825.0,5.00,0.00,25.4,24.3,00.0,34.1,27.2,07.8,0000.0,0007.21,0004.01,0003.61
2023-02-01 19:48:00,,0824.9,5.03,0.00,25.4,24.3,00.0,34.1,27.2,07.5,0000.0,0007.31,0004.08,0003.66
2023-02-01 19:49:00,,0824.9,4.97,0.00,25.4,24.3,00.0,34.1,27.2,07.4,0000.0,0007.59,0004.19,0003.72
2023-02-01 19:50:00,,0824.9,5.03,0.00,25.4,24.3,00.0,34.1,27.2,07.3,0000.0,0007.77,0004.30,0003.80
2023-02-01 19:51:00,,0825.0,4.99,0.00,25.4,24.3,00.0,34.2,27.2,07.2,0000.0,0007.88,0004.35,0003.83
2023-02-01 19:52:00,,0825.0,5.04,0.00,25.4,24.3,00.0,34.2,27.2,07.3,0000.0,0008.02,0004.43,0003.88
2023-02-01 19:53:00,,0824.9,5.00,0.00,25.4,24.3,00.0,34.2,27.2,07.5,0000.0,0008.06,0004.54,0003.97
2023-02-01 19:54:00,,0824.9,4.99,0.00,25.5,24.3,00.0,34.2,27.2,07.2,0000.0,0008.00,0004.54,0003.97
2023-02-01 19:55:00,,0824.9,5.04,0.00,25.5,24.3,00.0,34.2,27.3,07.1,0000.0,0007.95,0004.48,0003.91
2023-02-01 19:56:00,,0824.9,4.99,0.00,25.5,24.3,00.0,34.2,27.3,07.1,0000.0,0008.19,0004.38,0003.81
2023-02-01 19:57:00,,0824.9,5.04,0.00,25.5,24.3,00.0,34.2,27.3,07.3,0000.0,0008.48,0004.35,0003.75
2023-02-01 19:58:00,,0824.9,4.96,0.00,25.5,24.3,00.0,34.2,27.3,07.4,0000.0,0008.64,0004.32,0003.72
2023-02-01 19:59:00,,0824.9,5.02,0.00,25.5,24.3,00.0,34.3,27.3,07.0,0000.0,0008.59,0004.25,0003.66
